Temperature
0 1 1 0 1 -0 -1 -0 -0 1 1 3 3 2 2 2 2 2 3 3 3 3 2 2 2 2 2 2 3 3 3 3 3 4 4 4 4 5 5 6 6 6 6 6
-0 1 0 1 1 1 1 1 0 1 1 2 2 2 2 2 2 2 2 3 3 2 2 2 2 2 2 2 2 2 2 3 3 3 4 4 4 5 5 5 6 6 6 6
0 0 -0 0 1 1 1 0 0 1 1 2 1 1 1 2 2 2 2 2 2 2 2 1 1 2 2 2 2 2 2 3 3 3 3 4 4 4 5 5 5 6 6 6
-0 -1 0 2 1 1 1 1 0 1 1 1 1 2 2 2 2 2 2 2 2 2 1 1 1 1 2 2 2 2 2 2 2 3 3 3 4 4 4 5 5 5 6 6
-1 -1 -0 1 1 0 -0 -0 0 0 1 1 1 1 1 3 2 2 2 2 1 1 1 1 1 1 1 2 2 2 2 2 2 2 3 3 3 4 4 4 5 5 5 5
-0 -1 0 2 1 1 0 -0 0 -0 0 0 -0 -1 0 2 2 2 2 1 1 1 1 1 1 1 1 1 2 2 2 2 2 2 2 3 3 4 4 4 4 5 5 5
-0 -0 1 1 1 1 0 1 2 1 1 1 -1 0 1 2 1 1 1 1 1 1 1 1 1 1 1 1 1 2 2 2 2 2 2 2 3 3 4 4 4 4 5 5
-1 -0 1 1 -0 0 1 2 2 2 2 1 1 1 1 1 1 1 1 0 0 0 0 1 0 0 1 1 1 1 1 2 2 2 2 2 3 3 3 3 4 4 4 5
-0 1 2 1 2 3 3 2 2 2 2 1 1 0 0 0 0 -0 -0 -0 -0 -0 -0 0 0 0 0 1 1 1 1 1 1 2 2 2 2 3 3 3 3 3 4 4
-2 -1 -0 1 2 3 2 2 2 2 1 1 0 0 -0 -0 -1 -1 -1 -1 -1 -1 -1 -0 0 0 0 0 1 1 1 1 1 1 1 2 2 2 2 2 3 3 3 3
-2 -1 -1 1 2 3 2 2 1 1 1 0 -0 -0 -1 -1 -1 -1 -1 -1 -1 -1 -1 -1 -0 -0 -0 0 0 0 0 0 1 1 1 1 1 2 2 2 2 2 2 3
0 0 -0 1 3 2 2 1 1 0 0 -0 -1 -1 -1 -2 -2 -2 -2 -2 -2 -1 -1 -1 -1 -1 -0 -0 -0 -0 -0 -0 0 0 1 1 1 1 2 2 2 2 2 3
2 2 2 2 2 1 1 0 -0 -0 -1 -1 -1 -1 -2 -2 -2 -2 -2 -2 -2 -2 -2 -2 -2 -1 -1 -1 -1 -1 -1 -1 -0 -0 0 0 0 0 1 2 2 2 2 3
2 1 0 1 1 0 -0 -0 -1 -1 -1 -1 -2 -2 -2 -2 -2 -2 -2 -2 -2 -2 -2 -2 -2 -1 -1 -1 -1 -1 -1 -1 -1 -1 -0 -0 -0 0 0 0 1 2 2 2
1 1 0 0 -0 -1 -1 -1 -1 -1 -2 -2 -2 -2 -2 -3 -3 -3 -3 -3 -3 -3 -3 -2 -2 -2 -1 -1 -1 -1 -1 -1 -1 -1 -1 -1 -0 -0 -0 0 0 1 1 2
0 -0 -1 -1 -1 -1 -1 -2 -2 -2 -2 -3 -3 -3 -3 -3 -3 -3 -3 -3 -3 -3 -3 -3 -2 -2 -2 -2 -2 -1 -1 -1 -1 -1 -1 -1 -1 -0 -0 -0 0 1 1 1
-1 -2 -2 -2 -2 -2 -2 -2 -3 -3 -3 -3 -3 -3 -3 -4 -4 -4 -4 -4 -4 -4 -3 -3 -3 -2 -2 -2 -2 -2 -2 -1 -1 -1 -1 -1 -1 -1 -1 -0 -0 0 1 1
-1 -2 -2 -2 -2 -3 -3 -3 -3 -3 -4 -4 -4 -4 -4 -4 -4 -4 -4 -4 -4 -4 -3 -3 -3 -3 -2 -2 -2 -2 -2 -2 -2 -2 -2 -2 -1 -1 -1 -1 -0 0 0 1
-2 -2 -2 -3 -3 -3 -3 -3 -4 -4 -4 -4 -4 -5 -5 -5 -5 -5 -5 -5 -5 -4 -3 -3 -3 -3 -3 -2 -2 -2 -2 -2 -2 -2 -2 -2 -2 -1 -1 -1 -0 0 0 1
-3 -3 -3 -3 -3 -4 -4 -4 -4 -4 -4 -5 -5 -5 -5 -5 -5 -5 -5 -5 -5 -5 -4 -4 -4 -3 -3 -3 -3 -3 -3 -3 -2 -2 -2 -2 -2 -1 -1 -0 -0 -0 0 0
-3 -3 -3 -3 -4 -4 -4 -4 -4 -5 -5 -5 -5 -5 -5 -5 -5 -6 -6 -6 -5 -5 -5 -4 -4 -4 -3 -3 -3 -3 -3 -3 -2 -2 -2 -2 -2 -1 -1 -1 -0 -0 0 0
-4 -4 -4 -4 -4 -4 -4 -5 -5 -5 -5 -5 -6 -6 -6 -6 -6 -6 -6 -6 -5 -5 -5 -5 -4 -4 -4 -4 -3 -3 -3 -3 -3 -3 -2 -2 -2 -1 -1 -1 -1 -0 -0 0
-4 -4 -4 -4 -5 -5 -5 -5 -5 -6 -6 -6 -6 -6 -6 -7 -7 -7 -7 -6 -6 -6 -6 -5 -5 -5 -4 -4 -4 -3 -3 -3 -3 -3 -2 -2 -2 -2 -1 -1 -1 -1 -0 -0
-4 -5 -5 -5 -5 -5 -5 -6 -6 -6 -6 -6 -6 -7 -7 -7 -7 -7 -6 -6 -6 -6 -6 -5 -5 -5 -5 -4 -4 -4 -3 -3 -3 -3 -3 -2 -2 -2 -2 -1 -1 -1 -1 -0
-5 -5 -5 -6 -6 -6 -6 -6 -6 -6 -6 -6 -6 -7 -7 -7 -7 -7 -7 -6 -6 -6 -6 -6 -5 -5 -5 -5 -4 -4 -4 -4 -3 -3 -3 -2 -2 -2 -2 -1 -1 -1 -1 -1
-6 -6 -6 -7 -7 -7 -7 -7 -7 -7 -7 -7 -7 -7 -7 -7 -7 -7 -7 -7 -7 -6 -6 -6 -6 -6 -5 -5 -5 -4 -4 -4 -3 -3 -3 -3 -2 -2 -2 -2 -1 -1 -1 -1
-7 -7 -7 -7 -7 -7 -8 -8 -8 -8 -8 -8 -8 -8 -8 -8 -7 -7 -7 -7 -7 -7 -7 -6 -6 -6 -6 -5 -5 -5 -4 -4 -4 -3 -3 -3 -2 -2 -2 -2 -1 -1 -1 -1
Wind_Speed
12 12 9 12 13 11 14 13 13 16 19 25 20 16 15 13 13 13 14 13 12 12 11 11 11 11 11 12 11 10 9 8 8 8 7 7 7 6 5 5 5 6 8 8
9 10 11 17 18 17 18 17 20 23 25 23 17 13 12 13 12 13 14 13 13 13 13 13 12 12 12 11 11 9 9 8 8 9 8 7 5 5 5 4 3 4 6 7
7 5 6 12 12 14 10 10 11 17 17 13 12 12 11 12 12 12 13 14 13 13 13 13 12 11 11 11 9 9 9 8 8 9 9 6 5 5 5 4 3 3 3 5
4 3 10 9 5 8 10 13 14 14 13 12 13 12 12 11 10 12 12 13 13 12 13 12 11 11 11 10 9 8 8 8 8 9 8 7 6 5 5 3 2 1 2 3
3 5 11 10 5 6 7 10 10 13 14 13 11 9 9 8 8 11 12 12 12 11 12 11 11 11 11 10 9 9 9 8 8 8 7 7 7 6 4 2 2 1 1 2
5 5 8 8 3 4 3 7 7 8 11 11 5 7 9 9 10 12 12 11 11 11 11 11 11 10 10 10 9 9 9 8 8 7 6 7 7 6 3 2 2 1 1 1
10 9 11 8 4 6 3 8 4 5 7 7 6 9 10 11 11 12 12 12 11 11 10 11 11 9 9 10 10 10 9 8 7 6 6 6 6 5 3 2 2 1 1 1
7 8 12 6 8 8 10 4 3 5 7 7 9 11 12 12 12 12 13 12 11 10 11 11 9 8 9 10 10 9 8 7 7 5 5 5 5 5 4 1 1 1 1 1
12 11 6 7 9 8 4 5 6 6 7 8 10 12 12 12 12 12 12 12 10 9 11 11 9 7 9 11 9 8 7 7 6 5 5 5 4 5 4 2 1 1 1 1
8 11 9 8 8 8 7 8 8 8 9 9 11 13 13 13 12 12 12 11 9 9 10 11 10 8 9 10 8 6 7 7 6 5 6 5 4 4 4 3 2 2 2 2
9 9 8 9 10 10 9 8 9 9 9 9 10 12 12 12 12 11 11 10 9 9 10 11 10 9 9 8 6 5 6 7 5 5 5 5 5 4 5 4 3 3 3 3
11 9 8 8 7 6 7 8 8 8 9 9 8 11 11 11 11 10 10 10 10 10 10 11 10 10 8 6 5 5 6 6 4 4 4 4 5 6 7 6 6 6 6 5
11 8 8 8 7 6 6 7 7 7 9 10 9 8 9 10 9 10 10 10 11 11 11 10 10 9 8 7 5 5 5 5 4 4 4 4 4 4 6 6 5 4 3 4
9 6 6 7 7 5 5 6 6 6 7 7 8 8 8 9 10 10 11 11 11 10 10 9 9 9 8 6 5 5 5 6 5 4 4 4 4 4 3 4 4 3 3 2
9 9 8 6 4 4 4 4 5 7 7 8 7 8 8 9 11 11 11 10 10 10 10 9 10 10 8 6 5 5 4 4 4 3 3 4 4 4 3 3 3 2 2 2
5 5 5 5 5 5 4 4 6 7 8 8 8 8 9 9 10 11 10 9 9 10 10 10 10 10 8 6 5 4 4 6 5 3 3 3 3 3 3 3 2 2 2 1
4 5 5 5 6 5 5 5 6 7 7 8 9 9 9 9 10 10 10 9 9 10 10 9 10 10 8 6 5 4 4 4 5 4 3 3 3 3 3 3 2 2 2 2
6 6 5 5 4 5 5 5 6 7 7 8 8 8 8 9 10 11 11 10 10 10 9 9 9 9 8 6 5 4 3 3 3 3 3 3 4 3 3 3 3 3 2 1
3 3 3 3 3 3 4 5 5 6 6 6 7 8 8 8 9 10 9 9 10 11 10 9 13 10 8 7 6 3 3 3 3 3 3 4 4 3 3 3 3 2 2 1
1 1 1 1 2 2 4 4 5 5 5 6 6 7 8 9 8 9 9 9 8 8 9 11 10 8 7 6 6 3 3 3 4 4 4 3 3 3 2 2 2 2 2 2
1 0 0 1 2 3 3 4 4 6 6 6 6 7 9 9 8 8 8 9 9 9 10 12 8 7 6 6 7 4 4 4 4 4 4 3 3 2 2 2 2 2 2 2
0 0 1 2 3 4 4 4 4 6 6 7 7 7 8 9 9 8 8 8 9 13 10 7 6 9 10 9 5 4 4 4 3 3 3 3 3 2 2 2 2 2 2 2
0 1 1 2 3 4 5 5 5 5 6 7 7 8 8 8 7 7 9 8 7 12 10 7 10 12 12 7 4 4 4 4 4 3 3 3 3 2 2 2 2 2 3 3
1 1 2 2 3 3 5 6 6 6 6 7 7 7 7 8 7 6 7 11 13 14 8 10 13 12 10 5 4 4 4 4 3 3 3 2 2 2 2 2 3 3 3 4
1 2 2 3 3 4 5 6 6 6 6 6 7 7 6 6 7 8 8 8 12 12 8 9 12 11 7 5 4 4 4 4 4 3 2 2 2 2 2 3 3 4 4 4
1 2 2 3 4 4 4 5 5 6 6 7 7 7 6 6 7 7 7 8 9 10 8 6 6 7 5 5 4 4 4 4 4 3 3 2 2 2 3 3 4 4 4 4
2 2 3 3 3 3 4 4 5 6 6 7 8 7 7 7 7 7 7 7 7 7 6 6 5 5 4 4 4 4 3 3 3 2 2 1 2 2 3 4 4 4 4 4
Wind_Direction
252 261 256 252 253 226 219 224 239 258 266 278 287 294 298 298 303 308 310 310 309 309 309 311 312 312 313 315 317 318 316 311 308 308 295 289 289 283 276 253 244 225 211 211
265 253 255 265 260 245 240 239 245 261 272 273 283 291 292 295 301 305 307 308 308 309 310 310 309 310 313 313 313 314 313 311 315 317 313 300 291 293 294 274 254 238 212 206
269 287 294 267 244 228 225 220 222 245 257 279 294 294 293 295 296 295 298 303 304 305 305 304 304 305 308 310 311 313 311 314 317 317 315 306 298 302 299 291 273 243 215 206
273 341 257 252 199 207 226 244 233 243 263 278 280 289 288 279 279 288 295 299 301 302 304 303 302 305 307 308 309 311 310 313 315 317 316 317 305 298 300 277 268 251 237 214
221 252 272 283 242 196 214 265 240 241 262 274 286 305 294 275 275 282 288 292 295 296 298 302 304 306 309 310 309 310 307 307 310 312 311 314 312 300 298 300 295 269 254 217
208 228 252 256 213 160 116 282 252 229 258 276 299 306 295 300 299 294 294 295 297 301 303 303 304 308 309 309 308 305 303 299 300 301 303 306 308 309 303 303 293 301 279 233
225 239 261 252 181 129 186 255 264 228 251 261 249 254 280 298 298 294 295 296 298 299 300 298 303 308 304 306 303 300 300 299 299 297 301 305 309 312 311 307 310 305 289 271
198 225 251 199 149 189 227 252 255 255 255 260 267 280 289 294 296 298 299 300 300 300 299 299 302 303 301 299 297 303 305 305 305 307 311 316 318 322 324 305 302 300 306 325
201 223 244 182 205 226 230 251 259 258 266 272 282 288 294 297 297 297 296 298 299 297 299 302 301 296 295 297 300 306 307 307 308 310 312 315 318 321 324 313 271 283 285 291
243 256 255 251 254 259 253 254 264 265 270 276 280 288 293 296 298 299 299 299 301 302 303 303 304 299 292 298 301 304 305 308 313 317 319 320 319 314 310 303 287 272 273 271
246 265 283 266 248 250 257 264 270 273 271 271 277 286 290 295 296 298 299 301 302 300 299 299 304 304 303 304 306 307 305 305 310 313 313 316 317 309 305 292 269 264 255 236
238 232 225 250 246 242 253 264 268 276 283 282 277 282 291 293 295 298 301 304 305 304 302 302 304 302 304 305 300 300 303 305 307 313 314 317 324 329 325 308 309 294 278 272
238 246 237 255 260 249 252 264 271 272 274 284 288 285 289 292 296 299 301 303 303 302 301 302 303 300 304 304 297 292 291 296 302 306 308 312 317 323 327 339 333 307 290 288
236 240 253 249 252 256 257 268 279 285 283 283 288 294 295 295 299 301 301 302 302 303 303 305 306 302 303 302 298 295 292 294 298 296 299 302 301 300 302 310 319 332 337 323
236 225 233 251 263 269 273 284 294 296 298 298 296 297 299 299 300 301 302 305 307 307 307 309 309 306 305 302 296 290 292 295 294 295 295 295 297 297 297 294 290 302 332 353
236 232 230 239 252 265 276 278 282 289 295 296 298 299 297 296 297 300 304 308 308 307 308 308 305 305 306 298 294 291 287 291 297 294 295 298 298 297 297 291 286 281 283 287
210 233 235 248 255 264 266 268 272 282 290 292 294 299 303 305 306 307 307 307 303 300 302 303 303 308 310 300 291 288 286 289 295 294 290 289 290 288 285 280 272 267 267 260
215 223 224 227 240 262 278 283 284 287 290 292 300 303 304 304 303 305 308 312 313 311 308 306 308 312 310 304 294 284 281 283 284 282 282 283 284 277 270 266 260 255 259 259
202 208 213 223 235 250 269 281 287 292 298 303 305 303 300 300 303 306 309 312 313 311 313 317 316 317 313 313 310 290 284 285 288 286 283 282 283 273 257 248 251 241 212 200
146 155 200 265 277 271 283 292 297 299 302 304 306 306 307 306 306 307 307 301 295 293 301 309 312 311 310 311 311 295 284 280 280 283 282 275 272 271 251 234 225 212 193 185
136 93 314 304 302 303 298 299 301 302 306 305 302 300 301 303 305 305 305 303 304 305 308 310 313 310 310 310 307 293 282 278 277 276 278 277 277 271 242 220 215 192 174 168
141 302 302 310 315 315 313 308 301 302 306 307 305 303 305 308 310 306 293 288 299 309 314 308 308 308 312 308 300 292 284 283 280 275 273 270 263 251 229 210 197 182 168 164
333 311 311 309 306 304 310 309 305 304 301 301 301 301 300 300 302 304 305 305 306 308 313 304 308 312 314 313 304 297 291 285 280 274 271 270 261 233 208 196 183 170 159 154
337 328 317 313 314 314 312 310 309 305 298 295 294 294 296 300 299 291 288 302 310 311 309 307 313 317 317 314 307 299 291 286 278 271 268 267 254 219 197 181 166 155 151 151
320 317 315 318 313 301 299 305 309 308 306 304 300 299 296 290 290 298 301 302 307 312 311 311 315 319 320 311 308 302 294 284 281 275 262 252 227 195 184 176 161 150 150 151
319 304 294 285 282 288 296 301 303 305 309 310 311 309 308 305 301 302 304 305 306 310 312 310 313 315 316 310 306 303 298 296 296 289 271 248 204 180 170 163 156 153 152 149
320 310 310 310 303 295 295 295 297 301 304 304 306 310 311 312 311 312 311 312 312 312 312 313 313 311 310 309 307 304 301 300 296 289 276 244 202 180 172 164 155 147 146 145
Height
1485 1481 1482 1480 1478 1481 1482 1476 1474 1456 1448 1433 1429 1428 1424 1420 1416 1412 1408 1403 1399 1394 1389 1384 1380 1375 1370 1365 1361 1357 1353 1349 1345 1342 1340 1338 1336 1335 1334 1334 1335 1336 1339 1342
1481 1477 1477 1472 1464 1466 1466 1464 1459 1452 1442 1429 1427 1425 1421 1417 1413 1409 1404 1400 1395 1391 1386 1381 1376 1371 1367 1362 1358 1354 1351 1347 1343 1340 1337 1335 1333 1332 1330 1330 1331 1332 1334 1337
1477 1474 1473 1463 1452 1452 1452 1449 1449 1444 1432 1425 1424 1421 1417 1413 1409 1406 1401 1397 1392 1388 1383 1378 1373 1368 1363 1359 1354 1351 1347 1344 1341 1338 1335 1332 1330 1329 1328 1327 1327 1328 1330 1333
1477 1478 1469 1443 1440 1440 1442 1438 1436 1432 1427 1424 1421 1416 1413 1410 1406 1402 1398 1394 1389 1384 1379 1374 1369 1365 1360 1356 1352 1348 1344 1341 1339 1336 1333 1330 1328 1326 1325 1325 1325 1325 1327 1330
1476 1475 1459 1442 1436 1437 1439 1434 1426 1426 1422 1419 1416 1413 1407 1405 1403 1399 1395 1391 1386 1381 1376 1370 1366 1361 1357 1353 1349 1345 1342 1339 1336 1333 1331 1328 1326 1325 1324 1323 1323 1323 1325 1327
1469 1469 1457 1434 1431 1430 1434 1433 1420 1419 1418 1415 1414 1414 1405 1401 1398 1394 1390 1386 1382 1377 1372 1367 1363 1359 1354 1350 1346 1342 1339 1337 1334 1331 1329 1327 1325 1323 1323 1322 1322 1322 1323 1325
1460 1458 1442 1428 1427 1430 1437 1426 1415 1414 1413 1412 1411 1408 1402 1398 1394 1390 1385 1381 1377 1373 1368 1364 1359 1355 1351 1347 1343 1340 1337 1334 1331 1329 1327 1325 1323 1322 1321 1321 1320 1320 1321 1323
1455 1452 1437 1421 1424 1426 1419 1412 1412 1410 1409 1407 1404 1401 1397 1393 1389 1384 1380 1376 1372 1368 1363 1359 1356 1352 1347 1344 1341 1337 1334 1331 1329 1327 1325 1323 1321 1320 1320 1319 1319 1319 1319 1320
1434 1424 1414 1413 1412 1410 1410 1409 1408 1406 1405 1404 1400 1396 1392 1388 1383 1379 1375 1371 1368 1363 1358 1354 1351 1348 1344 1340 1337 1334 1331 1328 1326 1324 1323 1321 1320 1319 1318 1318 1317 1317 1317 1318
1426 1414 1410 1409 1408 1407 1407 1405 1404 1403 1401 1399 1395 1391 1387 1383 1378 1374 1370 1366 1362 1358 1354 1350 1347 1344 1340 1336 1333 1330 1328 1325 1323 1321 1320 1319 1318 1318 1317 1316 1315 1315 1316 1316
1417 1409 1407 1403 1402 1402 1401 1400 1399 1397 1396 1393 1390 1386 1382 1378 1373 1369 1365 1361 1358 1354 1350 1346 1343 1339 1336 1333 1330 1327 1325 1323 1321 1320 1318 1317 1316 1316 1315 1315 1315 1315 1315 1315
1404 1399 1400 1397 1397 1397 1396 1395 1393 1392 1389 1387 1385 1381 1377 1373 1369 1365 1361 1357 1353 1349 1345 1342 1338 1335 1333 1330 1327 1325 1322 1321 1319 1317 1316 1315 1314 1313 1313 1313 1313 1314 1314 1314
1392 1392 1393 1392 1392 1391 1391 1389 1388 1387 1384 1382 1379 1376 1372 1368 1365 1361 1357 1353 1349 1345 1341 1338 1334 1331 1329 1326 1324 1322 1320 1318 1317 1316 1314 1313 1312 1311 1310 1311 1311 1312 1312 1312
1387 1388 1387 1386 1386 1386 1385 1384 1383 1382 1379 1377 1374 1371 1367 1364 1360 1356 1352 1349 1345 1341 1337 1334 1330 1328 1325 1323 1321 1319 1317 1316 1314 1313 1312 1311 1311 1311 1310 1309 1308 1308 1309 1310
1381 1382 1381 1381 1381 1381 1381 1380 1378 1376 1374 1371 1369 1366 1363 1359 1355 1352 1348 1344 1341 1337 1333 1330 1327 1324 1322 1319 1318 1316 1314 1313 1312 1311 1310 1310 1309 1309 1309 1308 1307 1306 1307 1308
1375 1376 1376 1377 1377 1376 1376 1375 1373 1371 1369 1367 1364 1361 1358 1355 1351 1348 1344 1340 1337 1332 1329 1326 1323 1320 1318 1316 1314 1312 1311 1310 1310 1309 1308 1307 1307 1306 1306 1306 1305 1306 1306 1307
1371 1371 1371 1372 1372 1372 1371 1370 1369 1367 1365 1362 1360 1357 1354 1350 1347 1343 1340 1336 1333 1329 1326 1323 1319 1317 1315 1313 1311 1309 1308 1307 1307 1306 1305 1305 1304 1304 1304 1304 1304 1305 1305 1306
1366 1367 1368 1368 1368 1367 1367 1366 1365 1363 1361 1358 1356 1353 1350 1346 1343 1339 1336 1332 1328 1325 1322 1319 1316 1313 1311 1309 1308 1306 1305 1304 1304 1303 1303 1302 1302 1302 1302 1302 1303 1303 1304 1306
1363 1364 1364 1365 1365 1364 1363 1362 1361 1359 1357 1355 1352 1349 1346 1342 1339 1336 1332 1328 1325 1321 1317 1315 1313 1310 1308 1306 1305 1303 1302 1301 1300 1300 1299 1299 1299 1299 1300 1300 1301 1302 1303 1304
1361 1361 1362 1362 1362 1361 1360 1359 1357 1356 1354 1351 1348 1345 1341 1338 1335 1332 1328 1325 1322 1319 1315 1312 1309 1307 1304 1303 1301 1300 1299 1298 1297 1297 1296 1296 1296 1296 1297 1298 1299 1301 1302 1304
1359 1359 1360 1359 1359 1358 1357 1356 1354 1352 1350 1347 1344 1341 1338 1334 1332 1328 1324 1320 1317 1315 1312 1309 1306 1304 1302 1300 1299 1298 1297 1296 1295 1294 1294 1293 1293 1294 1295 1296 1298 1299 1301 1303
1357 1358 1357 1357 1356 1355 1354 1353 1351 1348 1346 1343 1341 1338 1334 1330 1327 1324 1321 1318 1314 1311 1308 1305 1303 1301 1299 1298 1296 1295 1294 1293 1292 1292 1291 1291 1291 1292 1293 1294 1296 1298 1300 1302
1356 1356 1355 1355 1354 1352 1351 1350 1347 1345 1342 1340 1337 1334 1331 1328 1324 1321 1316 1314 1311 1308 1305 1303 1300 1298 1297 1295 1294 1292 1291 1290 1290 1289 1289 1289 1289 1290 1291 1293 1295 1297 1299 1301
1354 1354 1353 1352 1351 1349 1348 1346 1344 1341 1339 1336 1333 1331 1328 1324 1320 1318 1315 1311 1308 1305 1302 1300 1298 1296 1294 1293 1291 1290 1289 1288 1287 1287 1287 1287 1287 1288 1289 1291 1294 1296 1298 1301
1352 1351 1350 1349 1348 1346 1344 1342 1340 1337 1335 1332 1329 1327 1324 1321 1318 1314 1311 1308 1305 1302 1299 1296 1294 1293 1291 1289 1288 1287 1286 1285 1285 1285 1285 1285 1286 1287 1288 1290 1292 1295 1297 1300
1350 1349 1348 1346 1345 1343 1341 1339 1336 1333 1331 1328 1325 1323 1320 1317 1314 1310 1307 1304 1302 1299 1296 1294 1291 1289 1288 1286 1285 1284 1284 1283 1283 1283 1283 1284 1285 1286 1288 1290 1292 1294 1297 1300
1347 1346 1345 1343 1341 1340 1338 1335 1333 1330 1328 1325 1322 1319 1316 1313 1310 1307 1304 1301 1298 1296 1293 1291 1289 1287 1285 1284 1283 1282 1282 1281 1281 1281 1282 1283 1284 1285 1287 1289 1292 1294 1297 1300